FW6124 Weather Reports


time (UTC)temp
C
wind
direction
speed
KPH
gust
KPH
rain 1hr
cm
rain 24hr
cm
rain mn
cm
humidity
%
barometer
mb
20260503181556 22 315 3.2 14.5 0.00 0.00 0.00 48 1014.4
20260503180042 22 342 1.6 8.0 0.00 0.00 0.00 55 1014.6
20260503174537 21 229 0.0 4.8 0.00 0.00 0.00 58 1014.8
20260503173050 20 351 1.6 9.7 0.00 0.00 0.00 60 1014.9
20260503171536 20 39 1.6 6.4 0.00 0.00 0.00 63 1015.0
20260503081559 10 0.0 0.0 0.00 0.03 0.00 86 1015.2
20260503071551 10 0.0 0.0 0.00 0.03 0.00 83 1015.1
20260503054518 12 0.0 0.0 0.00 0.03 0.03 79 1014.8
20260503053017 12 0.0 0.0 0.00 0.03 0.03 79 1014.8
20260503051510 12 0.0 0.0 0.00 0.03 0.03 78 1014.9
20260503050007 12 0.0 0.0 0.00 0.03 0.03 77 1014.8
20260503044501 13 0.0 0.0 0.00 0.03 0.03 77 1014.8
20260503043107 13 0.0 0.0 0.00 0.03 0.03 75 1014.8
20260503041553 14 0.0 0.0 0.00 0.03 0.03 74 1014.6
20260503040048 15 0.0 0.0 0.00 0.03 0.03 72 1014.5
20260503034543 15 0.0 0.0 0.00 0.03 0.03 71 1014.3
20260503033053 16 0.0 0.0 0.00 0.03 0.03 69 1014.1
20260503031537 16 0.0 0.0 0.00 0.03 0.03 68 1014.1
20260503030031 17 0.0 0.0 0.00 0.03 0.03 66 1013.9
20260503024529 17 275 0.0 0.0 0.00 0.03 0.03 66 1014.0
20260503023042 18 297 0.0 0.0 0.00 0.03 0.03 64 1014.0
20260503021528 18 297 0.0 0.0 0.00 0.03 0.03 62 1014.0
20260503020027 19 298 0.0 0.0 0.00 0.03 0.03 59 1014.1
20260503014524 20 298 0.0 0.0 0.00 0.03 0.03 57 1014.2
20260503013023 20 296 0.0 0.0 0.00 0.03 0.03 53 1014.3
20260503011521 21 311 0.0 6.4 0.00 0.03 0.03 52 1014.5
20260503010029 21 273 0.0 11.3 0.00 0.03 0.03 51 1014.5
20260503004518 22 321 0.0 8.0 0.00 0.03 0.03 48 1014.6
20260503003016 23 219 0.0 11.3 0.00 0.03 0.03 51 1014.6
20260503001518 23 295 1.6 14.5 0.00 0.03 0.03 48 1014.7
20260503000020 23 347 1.6 12.9 0.00 0.03 0.03 48 1014.8
20260502234510 23 240 1.6 16.1 0.00 0.03 0.03 49 1014.9
20260502233010 23 302 0.0 17.7 0.00 0.03 0.03 51 1015.1
20260502231508 23 322 0.0 16.1 0.00 0.03 0.03 50 1015.1
20260502230003 23 276 1.6 16.1 0.00 0.03 0.03 53 1015.3
20260502224500 23 215 3.2 14.5 0.00 0.03 0.03 54 1015.4
20260502223059 23 198 0.0 17.7 0.00 0.03 0.03 53 1015.6
20260502221556 23 256 1.6 19.3 0.00 0.03 0.03 55 1015.7
20260502220054 23 194 0.0 9.7 0.00 0.03 0.03 55 1015.9
20260502214551 22 215 3.2 11.3 0.00 0.03 0.03 61 1016.1
20260502213046 21 15 1.6 14.5 0.00 0.03 0.03 58 1016.3
20260502211553 21 257 0.0 19.3 0.00 0.03 0.03 58 1016.5
20260502210046 21 279 1.6 20.9 0.00 0.03 0.03 64 1016.7
20260502204545 21 217 0.0 14.5 0.00 0.03 0.03 64 1016.8
20260502203045 20 305 6.4 19.3 0.00 0.03 0.03 63 1016.7
20260502201544 20 300 3.2 14.5 0.00 0.03 0.03 61 1017.0
20260502200046 21 275 6.4 17.7 0.00 0.03 0.03 62 1017.1
20260502194544 21 252 4.8 17.7 0.00 0.03 0.03 62 1017.1
20260502193042 22 305 3.2 16.1 0.00 0.03 0.03 61 1017.0
20260502191538 21 286 1.6 9.7 0.00 0.03 0.03 58 1017.1
20260502190134 21 311 4.8 16.1 0.00 0.03 0.03 56 1017.3
20260502184535 21 338 0.0 12.9 0.00 0.03 0.03 61 1017.3
20260502183027 20 351 0.0 9.7 0.00 0.03 0.03 67 1017.5